owner,sensor,date,latitude,longitude,vertical_datum,direction_of_sea_water_velocity,sea_water_speed,upward_sea_water_velocity,qcFlag 
ADCP,ioos:station:wmo:42890:1,2013-12-01T00:02:00Z,27.6250,-90.4410,15.2,180.0,14.8,-9999.0,'11111222,11111222,99999999' 
ADCP,ioos:station:wmo:42890:1,2013-12-01T00:22:00Z,27.6250,-90.4410,15.2,177.0,13.2,-9999.0,'11111222,11111222,99999999' 
ADCP,ioos:station:wmo:42890:1,2013-12-01T00:42:00Z,27.6250,-90.4410,15.2,183.0,13.4,-9999.0,'11111222,11111222,99999999' 
ADCP,ioos:station:wmo:42890:1,2013-12-01T01:02:00Z,27.6250,-90.4410,15.2,193.0,15.9,-9999.0,'11111222,11111222,99999999' 
ADCP,ioos:station:wmo:42890:1,2013-12-01T01:22:00Z,27.6250,-90.4410,15.2,180.0,13.1,-9999.0,'11111222,11111222,99999999' 
ADCP,ioos:station:wmo:42890:1,2013-12-01T01:42:00Z,27.6250,-90.4410,15.2,165.0,11.6,-9999.0,'11111222,11111222,99999999' 
ADCP,ioos:station:wmo:42890:1,2013-12-01T02:02:00Z,27.6250,-90.4410,15.2,181.0,12.1,-9999.0,'11111222,11111222,99999999' 
ADCP,ioos:station:wmo:42890:1,2013-12-01T02:22:00Z,27.6250,-90.4410,15.2,191.0,11.3,-9999.0,'11111222,11111222,99999999' 
ADCP,ioos:station:wmo:42890:1,2013-12-01T02:42:00Z,27.6250,-90.4410,15.2,207.0,13.1,-9999.0,'11111222,11111222,99999999' 
ADCP,ioos:station:wmo:42890:1,2013-12-01T03:02:00Z,27.6250,-90.4410,15.2,210.0,12.0,-9999.0,'11111222,11111222,99999999' 
ADCP,ioos:station:wmo:42890:1,2013-12-01T03:22:00Z,27.6250,-90.4410,15.2,224.0,15.3,-9999.0,'11111222,11111222,99999999' 
ADCP,ioos:station:wmo:42890:1,2013-12-01T03:42:00Z,27.6250,-90.4410,15.2,215.0,14.7,-9999.0,'11111222,11111222,99999999' 
ADCP,ioos:station:wmo:42890:1,2013-12-01T04:02:00Z,27.6250,-90.4410,15.2,245.0,22.3,-9999.0,'11111222,11111222,99999999' 
ADCP,ioos:station:wmo:42890:1,2013-12-01T04:22:00Z,27.6250,-90.4410,15.2,243.0,22.5,-9999.0,'11111222,11111222,99999999' 
ADCP,ioos:station:wmo:42890:1,2013-12-01T04:42:00Z,27.6250,-90.4410,15.2,231.0,11.2,-9999.0,'11111222,11111222,99999999' 
ADCP,ioos:station:wmo:42890:1,2013-12-01T05:02:00Z,27.6250,-90.4410,15.2,222.0,9.0,-9999.0,'11133222,11111222,99999999' 
ADCP,ioos:station:wmo:42890:1,2013-12-01T05:22:00Z,27.6250,-90.4410,15.2,211.0,6.6,-9999.0,'11133222,11111222,99999999' 
ADCP,ioos:station:wmo:42890:1,2013-12-01T05:42:00Z,27.6250,-90.4410,15.2,111.0,18.6,-9999.0,'11111222,11111222,99999999' 
ADCP,ioos:station:wmo:42890:1,2013-12-01T06:02:00Z,27.6250,-90.4410,15.2,186.0,16.1,-9999.0,'11111222,11111222,99999999' 
ADCP,ioos:station:wmo:42890:1,2013-12-01T06:22:00Z,27.6250,-90.4410,15.2,91.0,19.4,-9999.0,'11111222,11111222,99999999' 
ADCP,ioos:station:wmo:42890:1,2013-12-01T06:42:00Z,27.6250,-90.4410,15.2,246.0,16.2,-9999.0,'11111222,11111222,99999999' 
ADCP,ioos:station:wmo:42890:1,2013-12-01T07:02:00Z,27.6250,-90.4410,15.2,122.0,15.1,-9999.0,'11111222,11111222,99999999' 
ADCP,ioos:station:wmo:42890:1,2013-12-01T07:22:00Z,27.6250,-90.4410,15.2,77.0,11.0,-9999.0,'11111222,11111222,99999999' 
ADCP,ioos:station:wmo:42890:1,2013-12-01T07:42:00Z,27.6250,-90.4410,15.2,245.0,13.3,-9999.0,'11111222,11111222,99999999' 
ADCP,ioos:station:wmo:42890:1,2013-12-01T08:02:00Z,27.6250,-90.4410,15.2,154.0,15.3,-9999.0,'11111222,11111222,99999999' 
ADCP,ioos:station:wmo:42890:1,2013-12-01T08:22:00Z,27.6250,-90.4410,15.2,287.0,21.8,-9999.0,'11111222,11111222,99999999' 
ADCP,ioos:station:wmo:42890:1,2013-12-01T08:42:00Z,27.6250,-90.4410,15.2,357.0,6.5,-9999.0,'11133222,11111222,99999999' 
ADCP,ioos:station:wmo:42890:1,2013-12-01T09:02:00Z,27.6250,-90.4410,15.2,9.0,4.4,-9999.0,'11133222,11111222,99999999' 
ADCP,ioos:station:wmo:42890:1,2013-12-01T09:22:00Z,27.6250,-90.4410,15.2,330.0,4.8,-9999.0,'11133222,11111222,99999999' 
ADCP,ioos:station:wmo:42890:1,2013-12-01T09:42:00Z,27.6250,-90.4410,15.2,312.0,3.8,-9999.0,'11133222,11111222,99999999' 
ADCP,ioos:station:wmo:42890:1,2013-12-01T10:02:00Z,27.6250,-90.4410,15.2,25.0,4.0,-9999.0,'11133222,11111222,99999999' 
ADCP,ioos:station:wmo:42890:1,2013-12-01T10:22:00Z,27.6250,-90.4410,15.2,18.0,3.8,-9999.0,'11133222,11111222,99999999' 
ADCP,ioos:station:wmo:42890:1,2013-12-01T10:42:00Z,27.6250,-90.4410,15.2,38.0,4.1,-9999.0,'11133222,11111222,99999999' 
ADCP,ioos:station:wmo:42890:1,2013-12-01T11:02:00Z,27.6250,-90.4410,15.2,43.0,2.6,-9999.0,'11133222,11111222,99999999' 
ADCP,ioos:station:wmo:42890:1,2013-12-01T11:22:00Z,27.6250,-90.4410,15.2,77.0,4.6,-9999.0,'11133222,11111222,99999999' 
ADCP,ioos:station:wmo:42890:1,2013-12-01T11:42:00Z,27.6250,-90.4410,15.2,77.0,4.9,-9999.0,'11133222,11111222,99999999' 
ADCP,ioos:station:wmo:42890:1,2013-12-01T12:02:00Z,27.6250,-90.4410,15.2,74.0,3.5,-9999.0,'11133222,11111222,99999999' 
ADCP,ioos:station:wmo:42890:1,2013-12-01T12:22:00Z,27.6250,-90.4410,15.2,87.0,5.4,-9999.0,'11133222,11111222,99999999' 
ADCP,ioos:station:wmo:42890:1,2013-12-01T12:42:00Z,27.6250,-90.4410,15.2,98.0,3.5,-9999.0,'11133222,11111222,99999999' 
ADCP,ioos:station:wmo:42890:1,2013-12-01T13:02:00Z,27.6250,-90.4410,15.2,85.0,11.0,-9999.0,'11111222,11111222,99999999' 
ADCP,ioos:station:wmo:42890:1,2013-12-01T13:22:00Z,27.6250,-90.4410,15.2,111.0,7.3,-9999.0,'11133222,11111222,99999999' 
ADCP,ioos:station:wmo:42890:1,2013-12-01T13:42:00Z,27.6250,-90.4410,15.2,104.0,10.0,-9999.0,'11111222,11111222,99999999' 
ADCP,ioos:station:wmo:42890:1,2013-12-01T14:02:00Z,27.6250,-90.4410,15.2,113.0,9.1,-9999.0,'11133222,11111222,99999999' 
ADCP,ioos:station:wmo:42890:1,2013-12-01T14:22:00Z,27.6250,-90.4410,15.2,108.0,12.0,-9999.0,'11111222,11111222,99999999' 
ADCP,ioos:station:wmo:42890:1,2013-12-01T14:42:00Z,27.6250,-90.4410,15.2,123.0,11.0,-9999.0,'11111222,11111222,99999999' 
ADCP,ioos:station:wmo:42890:1,2013-12-01T15:02:00Z,27.6250,-90.4410,15.2,112.0,15.4,-9999.0,'11111222,11111222,99999999' 
ADCP,ioos:station:wmo:42890:1,2013-12-01T15:22:00Z,27.6250,-90.4410,15.2,132.0,12.9,-9999.0,'11111222,11111222,99999999' 
ADCP,ioos:station:wmo:42890:1,2013-12-01T15:42:00Z,27.6250,-90.4410,15.2,194.0,23.7,-9999.0,'11111222,11111222,99999999' 
ADCP,ioos:station:wmo:42890:1,2013-12-01T16:02:00Z,27.6250,-90.4410,15.2,149.0,13.6,-9999.0,'11111222,11111222,99999999' 
ADCP,ioos:station:wmo:42890:1,2013-12-01T16:22:00Z,27.6250,-90.4410,15.2,131.0,15.6,-9999.0,'11111222,11111222,99999999' 
ADCP,ioos:station:wmo:42890:1,2013-12-01T16:42:00Z,27.6250,-90.4410,15.2,129.0,19.3,-9999.0,'11111222,11111222,99999999' 
ADCP,ioos:station:wmo:42890:1,2013-12-01T17:02:00Z,27.6250,-90.4410,15.2,150.0,16.0,-9999.0,'11111222,11111222,99999999' 
ADCP,ioos:station:wmo:42890:1,2013-12-01T17:22:00Z,27.6250,-90.4410,15.2,166.0,17.9,-9999.0,'11111222,11111222,99999999' 
ADCP,ioos:station:wmo:42890:1,2013-12-01T17:42:00Z,27.6250,-90.4410,15.2,180.0,20.4,-9999.0,'11111222,11111222,99999999' 
ADCP,ioos:station:wmo:42890:1,2013-12-01T18:02:00Z,27.6250,-90.4410,15.2,169.0,19.2,-9999.0,'11111222,11111222,99999999' 
ADCP,ioos:station:wmo:42890:1,2013-12-01T18:22:00Z,27.6250,-90.4410,15.2,166.0,17.8,-9999.0,'11111222,11111222,99999999' 
ADCP,ioos:station:wmo:42890:1,2013-12-01T18:42:00Z,27.6250,-90.4410,15.2,173.0,17.0,-9999.0,'11111222,11111222,99999999' 
ADCP,ioos:station:wmo:42890:1,2013-12-01T19:02:00Z,27.6250,-90.4410,15.2,177.0,21.5,-9999.0,'11111222,11111222,99999999' 
ADCP,ioos:station:wmo:42890:1,2013-12-01T19:22:00Z,27.6250,-90.4410,15.2,176.0,19.3,-9999.0,'11111222,11111222,99999999' 
ADCP,ioos:station:wmo:42890:1,2013-12-01T19:42:00Z,27.6250,-90.4410,15.2,202.0,29.5,-9999.0,'11111222,11111222,99999999' 
ADCP,ioos:station:wmo:42890:1,2013-12-01T20:02:00Z,27.6250,-90.4410,15.2,183.0,18.7,-9999.0,'11111222,11111222,99999999' 
ADCP,ioos:station:wmo:42890:1,2013-12-01T20:22:00Z,27.6250,-90.4410,15.2,184.0,15.5,-9999.0,'11111222,11111222,99999999' 
ADCP,ioos:station:wmo:42890:1,2013-12-01T20:42:00Z,27.6250,-90.4410,15.2,199.0,17.4,-9999.0,'11111222,11111222,99999999' 
ADCP,ioos:station:wmo:42890:1,2013-12-01T21:02:00Z,27.6250,-90.4410,15.2,205.0,16.3,-9999.0,'11111222,11111222,99999999' 
ADCP,ioos:station:wmo:42890:1,2013-12-01T21:22:00Z,27.6250,-90.4410,15.2,225.0,18.7,-9999.0,'11111222,11111222,99999999' 
ADCP,ioos:station:wmo:42890:1,2013-12-01T21:42:00Z,27.6250,-90.4410,15.2,228.0,18.1,-9999.0,'11111222,11111222,99999999' 
ADCP,ioos:station:wmo:42890:1,2013-12-01T22:02:00Z,27.6250,-90.4410,15.2,221.0,14.5,-9999.0,'11111222,11111222,99999999' 
ADCP,ioos:station:wmo:42890:1,2013-12-01T22:22:00Z,27.6250,-90.4410,15.2,212.0,10.9,-9999.0,'11111222,11111222,99999999' 
ADCP,ioos:station:wmo:42890:1,2013-12-01T22:42:00Z,27.6250,-90.4410,15.2,192.0,8.9,-9999.0,'11133222,11111222,99999999' 
ADCP,ioos:station:wmo:42890:1,2013-12-01T23:02:00Z,27.6250,-90.4410,15.2,190.0,7.8,-9999.0,'11133222,11111222,99999999' 
ADCP,ioos:station:wmo:42890:1,2013-12-01T23:22:00Z,27.6250,-90.4410,15.2,152.0,8.4,-9999.0,'11133222,11111222,99999999' 
ADCP,ioos:station:wmo:42890:1,2013-12-01T23:42:00Z,27.6250,-90.4410,15.2,179.0,6.6,-9999.0,'11133222,11111222,99999999' 
ADCP,ioos:station:wmo:42890:1,2013-12-02T00:02:00Z,27.6250,-90.4410,15.2,114.0,10.9,-9999.0,'11111222,11111222,99999999' 
ADCP,ioos:station:wmo:42890:1,2013-12-02T00:22:00Z,27.6250,-90.4410,15.2,161.0,6.9,-9999.0,'11133222,11111222,99999999' 
ADCP,ioos:station:wmo:42890:1,2013-12-02T00:42:00Z,27.6250,-90.4410,15.2,184.0,7.8,-9999.0,'11133222,11111222,99999999' 
ADCP,ioos:station:wmo:42890:1,2013-12-02T01:02:00Z,27.6250,-90.4410,15.2,203.0,7.5,-9999.0,'11133222,11111222,99999999' 
ADCP,ioos:station:wmo:42890:1,2013-12-02T01:22:00Z,27.6250,-90.4410,15.2,209.0,7.1,-9999.0,'11133222,11111222,99999999' 
ADCP,ioos:station:wmo:42890:1,2013-12-02T01:42:00Z,27.6250,-90.4410,15.2,229.0,8.7,-9999.0,'11133222,11111222,99999999' 
ADCP,ioos:station:wmo:42890:1,2013-12-02T02:02:00Z,27.6250,-90.4410,15.2,204.0,5.8,-9999.0,'11133222,11111222,99999999' 
ADCP,ioos:station:wmo:42890:1,2013-12-02T02:22:00Z,27.6250,-90.4410,15.2,245.0,14.9,-9999.0,'11111222,11111222,99999999' 
ADCP,ioos:station:wmo:42890:1,2013-12-02T02:42:00Z,27.6250,-90.4410,15.2,187.0,6.4,-9999.0,'11133222,11111222,99999999' 
ADCP,ioos:station:wmo:42890:1,2013-12-02T03:02:00Z,27.6250,-90.4410,15.2,229.0,6.5,-9999.0,'11133222,11111222,99999999' 
ADCP,ioos:station:wmo:42890:1,2013-12-02T03:22:00Z,27.6250,-90.4410,15.2,156.0,5.2,-9999.0,'11133222,11111222,99999999' 
ADCP,ioos:station:wmo:42890:1,2013-12-02T03:42:00Z,27.6250,-90.4410,15.2,185.0,5.2,-9999.0,'11133222,11111222,99999999' 
ADCP,ioos:station:wmo:42890:1,2013-12-02T04:02:00Z,27.6250,-90.4410,15.2,125.0,4.4,-9999.0,'11133222,11111222,99999999' 
ADCP,ioos:station:wmo:42890:1,2013-12-02T04:22:00Z,27.6250,-90.4410,15.2,164.0,4.0,-9999.0,'11133222,11111222,99999999' 
ADCP,ioos:station:wmo:42890:1,2013-12-02T04:42:00Z,27.6250,-90.4410,15.2,100.0,9.0,-9999.0,'11133222,11111222,99999999' 
ADCP,ioos:station:wmo:42890:1,2013-12-02T05:02:00Z,27.6250,-90.4410,15.2,146.0,4.5,-9999.0,'11133222,11111222,99999999' 
ADCP,ioos:station:wmo:42890:1,2013-12-02T05:22:00Z,27.6250,-90.4410,15.2,125.0,5.7,-9999.0,'11133222,11111222,99999999' 
ADCP,ioos:station:wmo:42890:1,2013-12-02T05:42:00Z,27.6250,-90.4410,15.2,163.0,4.2,-9999.0,'11133222,11111222,99999999' 
ADCP,ioos:station:wmo:42890:1,2013-12-02T06:02:00Z,27.6250,-90.4410,15.2,175.0,5.2,-9999.0,'11133222,11111222,99999999' 
ADCP,ioos:station:wmo:42890:1,2013-12-02T06:22:00Z,27.6250,-90.4410,15.2,148.0,4.9,-9999.0,'11133222,11111222,99999999' 
ADCP,ioos:station:wmo:42890:1,2013-12-02T06:42:00Z,27.6250,-90.4410,15.2,196.0,4.6,-9999.0,'11133222,11111222,99999999' 
ADCP,ioos:station:wmo:42890:1,2013-12-02T07:02:00Z,27.6250,-90.4410,15.2,179.0,4.8,-9999.0,'11133222,11111222,99999999' 
ADCP,ioos:station:wmo:42890:1,2013-12-02T07:22:00Z,27.6250,-90.4410,15.2,97.0,5.5,-9999.0,'11133222,11111222,99999999' 
ADCP,ioos:station:wmo:42890:1,2013-12-02T07:42:00Z,27.6250,-90.4410,15.2,103.0,2.7,-9999.0,'11133222,11111222,99999999' 
ADCP,ioos:station:wmo:42890:1,2013-12-02T08:02:00Z,27.6250,-90.4410,15.2,132.0,1.2,-9999.0,'11133222,11111222,99999999' 
ADCP,ioos:station:wmo:42890:1,2013-12-02T08:22:00Z,27.6250,-90.4410,15.2,225.0,1.4,-9999.0,'11133222,11111222,99999999' 
ADCP,ioos:station:wmo:42890:1,2013-12-02T08:42:00Z,27.6250,-90.4410,15.2,92.0,2.3,-9999.0,'11133222,11111222,99999999' 
ADCP,ioos:station:wmo:42890:1,2013-12-02T09:02:00Z,27.6250,-90.4410,15.2,73.0,17.1,-9999.0,'11111222,11111222,99999999' 
ADCP,ioos:station:wmo:42890:1,2013-12-02T09:22:00Z,27.6250,-90.4410,15.2,157.0,5.2,-9999.0,'11133222,11111222,99999999' 
ADCP,ioos:station:wmo:42890:1,2013-12-02T09:42:00Z,27.6250,-90.4410,15.2,145.0,4.7,-9999.0,'11133222,11111222,99999999' 
ADCP,ioos:station:wmo:42890:1,2013-12-02T10:02:00Z,27.6250,-90.4410,15.2,258.0,5.8,-9999.0,'11133222,11111222,99999999' 
ADCP,ioos:station:wmo:42890:1,2013-12-02T10:22:00Z,27.6250,-90.4410,15.2,220.0,3.5,-9999.0,'11133222,11111222,99999999' 
ADCP,ioos:station:wmo:42890:1,2013-12-02T10:42:00Z,27.6250,-90.4410,15.2,148.0,3.2,-9999.0,'11133222,11111222,99999999' 
ADCP,ioos:station:wmo:42890:1,2013-12-02T11:02:00Z,27.6250,-90.4410,15.2,167.0,3.2,-9999.0,'11133222,11111222,99999999' 
ADCP,ioos:station:wmo:42890:1,2013-12-02T11:22:00Z,27.6250,-90.4410,15.2,159.0,2.8,-9999.0,'11133222,11111222,99999999' 
ADCP,ioos:station:wmo:42890:1,2013-12-02T11:42:00Z,27.6250,-90.4410,15.2,141.0,3.6,-9999.0,'11133222,11111222,99999999' 
ADCP,ioos:station:wmo:42890:1,2013-12-02T12:02:00Z,27.6250,-90.4410,15.2,101.0,5.4,-9999.0,'11133222,11111222,99999999' 
ADCP,ioos:station:wmo:42890:1,2013-12-02T12:22:00Z,27.6250,-90.4410,15.2,147.0,3.7,-9999.0,'11133222,11111222,99999999' 
ADCP,ioos:station:wmo:42890:1,2013-12-02T12:42:00Z,27.6250,-90.4410,15.2,130.0,4.0,-9999.0,'11133222,11111222,99999999' 
ADCP,ioos:station:wmo:42890:1,2013-12-02T13:02:00Z,27.6250,-90.4410,15.2,85.0,13.9,-99999.0,'1111122,1111122,1199999999' 
ADCP,ioos:station:wmo:42890:1,2013-12-02T13:22:00Z,27.6250,-90.4410,15.2,171.0,11.1,-9999.0,'11111222,11111222,99999999' 
ADCP,ioos:station:wmo:42890:1,2013-12-02T13:42:00Z,27.6250,-90.4410,15.2,101.0,8.5,-9999.0,'11133222,11111222,99999999' 
ADCP,ioos:station:wmo:42890:1,2013-12-02T14:02:00Z,27.6250,-90.4410,15.2,138.0,5.8,-9999.0,'11133222,11111222,99999999' 
ADCP,ioos:station:wmo:42890:1,2013-12-02T14:22:00Z,27.6250,-90.4410,15.2,139.0,5.5,-9999.0,'11133222,11111222,99999999' 
ADCP,ioos:station:wmo:42890:1,2013-12-02T14:42:00Z,27.6250,-90.4410,15.2,125.0,7.5,-9999.0,'11133222,11111222,99999999' 
ADCP,ioos:station:wmo:42890:1,2013-12-02T15:02:00Z,27.6250,-90.4410,15.2,151.0,6.3,-9999.0,'11133222,11111222,99999999' 
ADCP,ioos:station:wmo:42890:1,2013-12-02T15:22:00Z,27.6250,-90.4410,15.2,129.0,5.5,-9999.0,'11133222,11111222,99999999' 
ADCP,ioos:station:wmo:42890:1,2013-12-02T15:42:00Z,27.6250,-90.4410,15.2,170.0,5.5,-9999.0,'11133222,11111222,99999999' 
ADCP,ioos:station:wmo:42890:1,2013-12-02T16:02:00Z,27.6250,-90.4410,15.2,133.0,7.1,-9999.0,'11133222,11111222,99999999' 
ADCP,ioos:station:wmo:42890:1,2013-12-02T16:22:00Z,27.6250,-90.4410,15.2,169.0,5.9,-9999.0,'11133222,11111222,99999999' 
ADCP,ioos:station:wmo:42890:1,2013-12-02T16:42:00Z,27.6250,-90.4410,15.2,152.0,5.5,-9999.0,'11133222,11111222,99999999' 
ADCP,ioos:station:wmo:42890:1,2013-12-02T17:02:00Z,27.6250,-90.4410,15.2,114.0,10.0,-9999.0,'11111222,11111222,99999999' 
ADCP,ioos:station:wmo:42890:1,2013-12-02T17:22:00Z,27.6250,-90.4410,15.2,131.0,7.0,-9999.0,'11133222,11111222,99999999' 
ADCP,ioos:station:wmo:42890:1,2013-12-02T17:42:00Z,27.6250,-90.4410,15.2,124.0,8.9,-9999.0,'11133222,11111222,99999999' 
ADCP,ioos:station:wmo:42890:1,2013-12-02T18:02:00Z,27.6250,-90.4410,15.2,176.0,5.6,-9999.0,'11133222,11111222,99999999' 
ADCP,ioos:station:wmo:42890:1,2013-12-02T18:22:00Z,27.6250,-90.4410,15.2,168.0,5.2,-9999.0,'11133222,11111222,99999999' 
ADCP,ioos:station:wmo:42890:1,2013-12-02T18:42:00Z,27.6250,-90.4410,15.2,175.0,5.9,-9999.0,'11133222,11111222,99999999' 
ADCP,ioos:station:wmo:42890:1,2013-12-02T19:02:00Z,27.6250,-90.4410,15.2,187.0,6.5,-9999.0,'11133222,11111222,99999999' 
ADCP,ioos:station:wmo:42890:1,2013-12-02T19:22:00Z,27.6250,-90.4410,15.2,212.0,6.6,-9999.0,'11133222,11111222,99999999' 
ADCP,ioos:station:wmo:42890:1,2013-12-02T19:42:00Z,27.6250,-90.4410,15.2,205.0,5.3,-9999.0,'11133222,11111222,99999999' 
ADCP,ioos:station:wmo:42890:1,2013-12-02T20:02:00Z,27.6250,-90.4410,15.2,196.0,4.7,-9999.0,'11133222,11111222,99999999' 
ADCP,ioos:station:wmo:42890:1,2013-12-02T20:22:00Z,27.6250,-90.4410,15.2,180.0,5.6,-9999.0,'11133222,11111222,99999999' 
ADCP,ioos:station:wmo:42890:1,2013-12-02T20:42:00Z,27.6250,-90.4410,15.2,130.0,8.2,-9999.0,'11133222,11111222,99999999' 
ADCP,ioos:station:wmo:42890:1,2013-12-02T21:02:00Z,27.6250,-90.4410,15.2,124.0,8.7,-9999.0,'11133222,11111222,99999999' 
ADCP,ioos:station:wmo:42890:1,2013-12-02T21:22:00Z,27.6250,-90.4410,15.2,119.0,10.7,-9999.0,'11111222,11111222,99999999' 
ADCP,ioos:station:wmo:42890:1,2013-12-02T21:42:00Z,27.6250,-90.4410,15.2,123.0,10.0,-9999.0,'11111222,11111222,99999999' 
ADCP,ioos:station:wmo:42890:1,2013-12-02T22:02:00Z,27.6250,-90.4410,15.2,118.0,11.8,-9999.0,'11111222,11111222,99999999' 
ADCP,ioos:station:wmo:42890:1,2013-12-02T22:22:00Z,27.6250,-90.4410,15.2,129.0,9.6,-9999.0,'11133222,11111222,99999999' 
ADCP,ioos:station:wmo:42890:1,2013-12-02T22:42:00Z,27.6250,-90.4410,15.2,130.0,11.0,-9999.0,'11111222,11111222,99999999' 
ADCP,ioos:station:wmo:42890:1,2013-12-02T23:02:00Z,27.6250,-90.4410,15.2,118.0,13.6,-9999.0,'11111222,11111222,99999999' 
ADCP,ioos:station:wmo:42890:1,2013-12-02T23:22:00Z,27.6250,-90.4410,15.2,122.0,14.6,-9999.0,'11111222,11111222,99999999' 
ADCP,ioos:station:wmo:42890:1,2013-12-02T23:42:00Z,27.6250,-90.4410,15.2,123.0,16.9,-9999.0,'11111222,11111222,99999999' 
ADCP,ioos:station:wmo:42890:1,2013-12-03T00:02:00Z,27.6250,-90.4410,15.2,128.0,15.0,-9999.0,'11111222,11111222,99999999' 
ADCP,ioos:station:wmo:42890:1,2013-12-03T00:22:00Z,27.6250,-90.4410,15.2,131.0,14.2,-9999.0,'11111222,11111222,99999999' 
ADCP,ioos:station:wmo:42890:1,2013-12-03T00:42:00Z,27.6250,-90.4410,15.2,156.0,12.3,-9999.0,'11111222,11111222,99999999' 
ADCP,ioos:station:wmo:42890:1,2013-12-03T01:02:00Z,27.6250,-90.4410,15.2,163.0,12.1,-9999.0,'11111222,11111222,99999999' 
ADCP,ioos:station:wmo:42890:1,2013-12-03T01:22:00Z,27.6250,-90.4410,15.2,175.0,9.6,-9999.0,'11133222,11111222,99999999' 
ADCP,ioos:station:wmo:42890:1,2013-12-03T01:42:00Z,27.6250,-90.4410,15.2,172.0,9.1,-9999.0,'11133222,11111222,99999999' 
ADCP,ioos:station:wmo:42890:1,2013-12-03T02:02:00Z,27.6250,-90.4410,15.2,162.0,9.0,-9999.0,'11133222,11111222,99999999' 
ADCP,ioos:station:wmo:42890:1,2013-12-03T02:22:00Z,27.6250,-90.4410,15.2,187.0,7.6,-9999.0,'11133222,11111222,99999999' 
ADCP,ioos:station:wmo:42890:1,2013-12-03T02:42:00Z,27.6250,-90.4410,15.2,186.0,8.2,-9999.0,'11133222,11111222,99999999' 
ADCP,ioos:station:wmo:42890:1,2013-12-03T03:02:00Z,27.6250,-90.4410,15.2,202.0,7.4,-9999.0,'11133222,11111222,99999999' 
ADCP,ioos:station:wmo:42890:1,2013-12-03T03:22:00Z,27.6250,-90.4410,15.2,185.0,7.5,-9999.0,'11133222,11111222,99999999' 
ADCP,ioos:station:wmo:42890:1,2013-12-03T03:42:00Z,27.6250,-90.4410,15.2,198.0,8.0,-9999.0,'11133222,11111222,99999999' 
ADCP,ioos:station:wmo:42890:1,2013-12-03T04:02:00Z,27.6250,-90.4410,15.2,206.0,7.6,-9999.0,'11133222,11111222,99999999' 
ADCP,ioos:station:wmo:42890:1,2013-12-03T04:22:00Z,27.6250,-90.4410,15.2,199.0,7.7,-9999.0,'11133222,11111222,99999999' 
ADCP,ioos:station:wmo:42890:1,2013-12-03T04:42:00Z,27.6250,-90.4410,15.2,160.0,9.2,-9999.0,'11133222,11111222,99999999' 
ADCP,ioos:station:wmo:42890:1,2013-12-03T05:02:00Z,27.6250,-90.4410,15.2,145.0,9.3,-9999.0,'11133222,11111222,99999999' 
ADCP,ioos:station:wmo:42890:1,2013-12-03T05:22:00Z,27.6250,-90.4410,15.2,146.0,8.7,-9999.0,'11133222,11111222,99999999' 
ADCP,ioos:station:wmo:42890:1,2013-12-03T05:42:00Z,27.6250,-90.4410,15.2,142.0,8.0,-9999.0,'11133222,11111222,99999999' 
ADCP,ioos:station:wmo:42890:1,2013-12-03T06:02:00Z,27.6250,-90.4410,15.2,135.0,9.1,-9999.0,'11133222,11111222,99999999' 
ADCP,ioos:station:wmo:42890:1,2013-12-03T06:22:00Z,27.6250,-90.4410,15.2,133.0,7.9,-9999.0,'11133222,11111222,99999999' 
ADCP,ioos:station:wmo:42890:1,2013-12-03T06:42:00Z,27.6250,-90.4410,15.2,145.0,6.6,-9999.0,'11133222,11111222,99999999' 
ADCP,ioos:station:wmo:42890:1,2013-12-03T07:02:00Z,27.6250,-90.4410,15.2,135.0,6.8,-9999.0,'11133222,11111222,99999999' 
ADCP,ioos:station:wmo:42890:1,2013-12-03T07:22:00Z,27.6250,-90.4410,15.2,129.0,7.0,-9999.0,'11133222,11111222,99999999' 
ADCP,ioos:station:wmo:42890:1,2013-12-03T07:42:00Z,27.6250,-90.4410,15.2,121.0,6.8,-9999.0,'11133222,11111222,99999999' 
ADCP,ioos:station:wmo:42890:1,2013-12-03T08:02:00Z,27.6250,-90.4410,15.2,123.0,5.6,-9999.0,'11133222,11111222,99999999' 
ADCP,ioos:station:wmo:42890:1,2013-12-03T08:22:00Z,27.6250,-90.4410,15.2,142.0,4.4,-9999.0,'11133222,11111222,99999999' 
ADCP,ioos:station:wmo:42890:1,2013-12-03T08:42:00Z,27.6250,-90.4410,15.2,146.0,4.1,-9999.0,'11133222,11111222,99999999' 
ADCP,ioos:station:wmo:42890:1,2013-12-03T09:02:00Z,27.6250,-90.4410,15.2,129.0,4.3,-9999.0,'11133222,11111222,99999999' 
ADCP,ioos:station:wmo:42890:1,2013-12-03T09:22:00Z,27.6250,-90.4410,15.2,124.0,5.0,-9999.0,'11133222,11111222,99999999' 
ADCP,ioos:station:wmo:42890:1,2013-12-03T09:42:00Z,27.6250,-90.4410,15.2,107.0,4.8,-9999.0,'11133222,11111222,99999999' 
ADCP,ioos:station:wmo:42890:1,2013-12-03T10:02:00Z,27.6250,-90.4410,15.2,112.0,5.1,-9999.0,'11133222,11111222,99999999' 
ADCP,ioos:station:wmo:42890:1,2013-12-03T10:22:00Z,27.6250,-90.4410,15.2,38.0,3.6,-9999.0,'11133222,11111222,99999999' 
ADCP,ioos:station:wmo:42890:1,2013-12-03T10:42:00Z,27.6250,-90.4410,15.2,47.0,4.7,-9999.0,'11133222,11111222,99999999' 
ADCP,ioos:station:wmo:42890:1,2013-12-03T11:02:00Z,27.6250,-90.4410,15.2,28.0,4.7,-9999.0,'11133222,11111222,99999999' 
ADCP,ioos:station:wmo:42890:1,2013-12-03T11:22:00Z,27.6250,-90.4410,15.2,59.0,5.1,-9999.0,'11133222,11111222,99999999' 
ADCP,ioos:station:wmo:42890:1,2013-12-03T11:42:00Z,27.6250,-90.4410,15.2,87.0,6.2,-9999.0,'11133222,11111222,99999999' 
ADCP,ioos:station:wmo:42890:1,2013-12-03T12:02:00Z,27.6250,-90.4410,15.2,64.0,6.1,-9999.0,'11133222,11111222,99999999' 
ADCP,ioos:station:wmo:42890:1,2013-12-03T12:22:00Z,27.6250,-90.4410,15.2,53.0,6.4,-9999.0,'11133222,11111222,99999999' 
ADCP,ioos:station:wmo:42890:1,2013-12-03T12:42:00Z,27.6250,-90.4410,15.2,38.0,6.5,-9999.0,'11133222,11111222,99999999' 
ADCP,ioos:station:wmo:42890:1,2013-12-03T13:02:00Z,27.6250,-90.4410,15.2,27.0,6.5,-9999.0,'11133222,11111222,99999999' 
ADCP,ioos:station:wmo:42890:1,2013-12-03T13:22:00Z,27.6250,-90.4410,15.2,28.0,9.5,-9999.0,'11133222,11111222,99999999' 
ADCP,ioos:station:wmo:42890:1,2013-12-03T13:42:00Z,27.6250,-90.4410,15.2,6.0,8.3,-9999.0,'11133222,11111222,99999999' 
ADCP,ioos:station:wmo:42890:1,2013-12-03T14:02:00Z,27.6250,-90.4410,15.2,314.0,5.7,-9999.0,'11133222,11111222,99999999' 
ADCP,ioos:station:wmo:42890:1,2013-12-03T14:22:00Z,27.6250,-90.4410,15.2,305.0,6.1,-9999.0,'11133222,11111222,99999999' 
ADCP,ioos:station:wmo:42890:1,2013-12-03T14:42:00Z,27.6250,-90.4410,15.2,344.0,5.0,-9999.0,'11133222,11111222,99999999' 
ADCP,ioos:station:wmo:42890:1,2013-12-03T15:02:00Z,27.6250,-90.4410,15.2,16.0,4.0,-9999.0,'11133222,11111222,99999999' 
ADCP,ioos:station:wmo:42890:1,2013-12-03T15:22:00Z,27.6250,-90.4410,15.2,250.0,10.1,-9999.0,'11111222,11111222,99999999' 
ADCP,ioos:station:wmo:42890:1,2013-12-03T15:42:00Z,27.6250,-90.4410,15.2,245.0,13.6,-9999.0,'11111222,11111222,99999999' 
ADCP,ioos:station:wmo:42890:1,2013-12-03T16:02:00Z,27.6250,-90.4410,15.2,244.0,15.3,-9999.0,'11111222,11111222,99999999' 
ADCP,ioos:station:wmo:42890:1,2013-12-03T16:22:00Z,27.6250,-90.4410,15.2,244.0,16.4,-9999.0,'11111222,11111222,99999999' 
ADCP,ioos:station:wmo:42890:1,2013-12-03T16:42:00Z,27.6250,-90.4410,15.2,247.0,10.9,-9999.0,'11111222,11111222,99999999' 
ADCP,ioos:station:wmo:42890:1,2013-12-03T17:02:00Z,27.6250,-90.4410,15.2,250.0,15.2,-9999.0,'11111222,11111222,99999999' 